Pagrindinis puslapis
METAR-TAF:

METAR-TAF

Oro uostai :

Brownwood, Teksasas, Jungtinės Amerikos Valstijos

platuma: 31-48N, ilguma: 098-57W, Aukštis: 422 m

Dabartinis oras

Ataskaita buvo paskelbta 25 minutes, ne 07:15 UTC
Ramus vėjas
Temperatūra 15°C
Drėgmė 100%
Slėgis 1013 hPa
Matomumas: 16.1 km
Giedras dangus

METAR: KBWD 270715Z AUTO 00000KT 10SM CLR 15/15 A2992 RMK AO1

Laikas: 02:40 (07:40 UTC)


TAF: trūkstamas

Orai ataskaitas ir orų prognozės (METAR, TAF).

turimą stotys yra geltonos ir raudonos taškus žemėlapyje.

Perkelti pele per norėdami pamatyti stoties vardą.

Tada spustelėkite, norėdami matyti oro stebėjimo ir prognozės.

Norėdami pakeisti žemėlapį: spustelėkite ant žalios mygtukų su juodo kryžiaus žemyn,; žalią mygtuką su brūkšneliu, jei norite nutolinti; arba žalių rodyklių gretimoms žemėlapius.


METAR-TAF: